sat.trackr.live / text

‹ back to catalog

QIANFAN-56

NORAD 62786 · 2025-016B

PAYLOAD ACTIVE UNKNOWN

§ Identity

Operator
Country
PRC
Launch date
2025-01-23
Launch site
TAISC
Launch vehicle
Mass (kg)
RCS (m²)

External: N2YO · Heavens-Above · Gunter

§ Orbital elements

Epoch: 2026-09-22T21:32:26.572128Z

Period
106.59 min
Inclination
88.9648°
Eccentricity
0.0014271
Mean motion
13.51028295 rev/d
Perigee alt
1,057.9 km
Apogee alt
1,079.1 km
Semi-major
7,446.6 km
B*
6.1725e-5
RAAN
73.4676°
Arg perigee
247.2864°
Mean anomaly
112.6779°
Rev number
8,560

§ Raw data

QIANFAN-561 62786U 25016B   26265.89752977  .00000052  00000+0  61725-4 0  99992 62786  88.9648  73.4676 0014271 247.2864 112.6779 13.51028295 85603

JSON: /api/v1/satellites/62786 · /tle

For live sub-satellite position, see the globe view (requires WebGL).

§ Visibility from observer

Set your observer location to see the next 7 days of passes ≥ 10°. The values pass through the URL so the page stays shareable.

No JS? Fill the form by hand. The geolocation button needs JavaScript.